Satellite: SO-50
Catalog number: 27607
Epoch time:      12046.70269083
Element set:    0690
Inclination:      064.5599 deg
RA of node:       307.4521 deg
Eccentricity:    0.0085167
Arg of perigee:   272.4092 deg
Mean anomaly:     086.7276 deg
Mean motion:   14.72214062 rev/day
Decay rate:       4.41e-06 rev/day^2
Epoch rev:           49193
Checksum:              313

Satellite: CO-55
Catalog number: 27844
Epoch time:      12046.54404546
Element set:    0312
Inclination:      098.7051 deg
RA of node:       056.7006 deg
Eccentricity:    0.0008981
Arg of perigee:   215.0211 deg
Mean anomaly:     145.0380 deg
Mean motion:   14.20960943 rev/day
Decay rate:       1.54e-06 rev/day^2
Epoch rev:           44747
Checksum:              283

Satellite: CO-57
Catalog number: 27848
Epoch time:      12046.52659344
Element set:    0260
Inclination:      098.7139 deg
RA of node:       055.9660 deg
Eccentricity:    0.0008803
Arg of perigee:   217.9654 deg
Mean anomaly:     142.0898 deg
Mean motion:   14.20720903 rev/day
Decay rate:       1.27e-06 rev/day^2
Epoch rev:           44741
Checksum:              321

Satellite: AO-51
Catalog number: 28375
Epoch time:      12046.93466489
Element set:    0196
Inclination:      098.1298 deg
RA of node:       018.0044 deg
Eccentricity:    0.0084775
Arg of perigee:   051.3238 deg
Mean anomaly:     309.5481 deg
Mean motion:   14.40895075 rev/day
Decay rate:       1.52e-06 rev/day^2
Epoch rev:           40116
Checksum:              319

Satellite: CP3
Catalog number: 31129
Epoch time:      12046.77909748
Element set:    0094
Inclination:      097.8879 deg
RA of node:       061.7606 deg
Eccentricity:    0.0101609
Arg of perigee:   143.3735 deg
Mean anomaly:     217.4392 deg
Mean motion:   14.52886230 rev/day
Decay rate:       3.01e-06 rev/day^2
Epoch rev:           25620
Checksum:              308

Satellite: CO-65
Catalog number: 32785
Epoch time:      12046.90400964
Element set:    0231
Inclination:      097.8168 deg
RA of node:       110.7849 deg
Eccentricity:    0.0015809
Arg of perigee:   100.6406 deg
Mean anomaly:     259.6571 deg
Mean motion:   14.82681578 rev/day
Decay rate:       7.22e-06 rev/day^2
Epoch rev:           20564
Checksum:              319

Satellite: PRISM
Catalog number: 33493
Epoch time:      12047.65459028
Element set:     431
Inclination:      098.1512 deg
RA of node:       185.5176 deg
Eccentricity:    0.0018518
Arg of perigee:   333.9221 deg
Mean anomaly:     026.1063 deg
Mean motion:   14.83195034 rev/day
Decay rate:      1.820e-05 rev/day^2
Epoch rev:           16573
Checksum:              285

Satellite: SOHLA-1
Catalog number: 33496
Epoch time:      12046.84787072
Element set:    0657
Inclination:      098.0930 deg
RA of node:       159.4919 deg
Eccentricity:    0.0007677
Arg of perigee:   071.6879 deg
Mean anomaly:     288.5152 deg
Mean motion:   14.69866047 rev/day
Decay rate:       3.03e-06 rev/day^2
Epoch rev:           16427
Checksum:              350

Satellite: SO-67
Catalog number: 35870
Epoch time:      12047.72344950
Element set:     688
Inclination:      097.2493 deg
RA of node:       087.7313 deg
Eccentricity:    0.0000910
Arg of perigee:   191.4224 deg
Mean anomaly:     270.6904 deg
Mean motion:   15.22779353 rev/day
Decay rate:      3.034e-05 rev/day^2
Epoch rev:           13412
Checksum:              304

Satellite: TISAT-1
Catalog number: 36799
Epoch time:      12047.78821335
Element set:     704
Inclination:      098.0729 deg
RA of node:       123.2251 deg
Eccentricity:    0.0014576
Arg of perigee:   201.3130 deg
Mean anomaly:     158.7523 deg
Mean motion:   14.81514340 rev/day
Decay rate:      1.178e-05 rev/day^2
Epoch rev:            8651
Checksum:              289

Satellite: STUDSAT
Catalog number: 36801
Epoch time:      12046.93840199
Element set:    0339
Inclination:      098.0792 deg
RA of node:       122.6215 deg
Eccentricity:    0.0012974
Arg of perigee:   191.4953 deg
Mean anomaly:     168.5967 deg
Mean motion:   14.83097546 rev/day
Decay rate:      3.131e-05 rev/day^2
Epoch rev:           08639
Checksum:              329

Satellite: FO-69
Catalog number: 37227
Epoch time:      12046.04422040
Element set:    0103
Inclination:      071.9672 deg
RA of node:       223.6606 deg
Eccentricity:    0.0017759
Arg of perigee:   195.0744 deg
Mean anomaly:     164.9889 deg
Mean motion:   14.76923927 rev/day
Decay rate:       3.30e-06 rev/day^2
Epoch rev:           01791
Checksum:              314

Satellite: FO-70
Catalog number: 37380
Epoch time:      12046.50349291
Element set:    0106
Inclination:      071.9705 deg
RA of node:       223.0530 deg
Eccentricity:    0.0018152
Arg of perigee:   191.1227 deg
Mean anomaly:     168.9536 deg
Mean motion:   14.76682035 rev/day
Decay rate:       3.31e-06 rev/day^2
Epoch rev:           01787
Checksum:              285

/EX
SB KEPS @ AMSAT  $ORB12047.W
Orbital Elements  12047.WEATHER

HR AMSAT ORBITAL ELEMENTS FOR WEATHER SATELLITES
FROM WA5QGD FORT WORTH,TX February 16, 2012
Send SUBSCRIBE KEPS/UNSUBSCRIBE KEPS to majordomo@amsat.org only
BID: ORB12047.W
TO ALL RADIO AMATEURS BT

